This is the latest recevied weather packets stored in our database for station/object 4S6DRJ-13. If no packets are shown the sender has not sent any weather packets the latest 10 day(s).
| Time | Temp. | Humidity | Pressure | Rain* | Wind** | Luminosity | Snow |
|---|---|---|---|---|---|---|---|
| 1787897512 | 30.56° C | 77% | 1010.2 hPa | 0 mm | 0.89 m/s, 216° | 717 W/m² | - |
| 1787897451 | 30.56° C | 76% | 1010 hPa | 0 mm | 1.34 m/s, 217° | 826 W/m² | - |
| 1787897390 | 30.56° C | 76% | 1010.2 hPa | 0 mm | 1.79 m/s, 122° | 340 W/m² | - |
| 1787897329 | 30.56° C | 76% | 1010.1 hPa | 0 mm | 1.79 m/s, 349° | 410 W/m² | - |
| 1787897268 | 30.56° C | 77% | 1010.2 hPa | 0 mm | 2.68 m/s, 223° | 391 W/m² | - |
| 1787897207 | 30.56° C | 76% | 1010.1 hPa | 0 mm | 3.58 m/s, 273° | 507 W/m² | - |
| 1787897146 | 30.56° C | 76% | 1010.2 hPa | 0 mm | 2.24 m/s, 229° | 600 W/m² | - |
| 1787897085 | 30.56° C | 76% | 1010.2 hPa | 0 mm | 2.24 m/s, 311° | 486 W/m² | - |
| 1787897024 | 30.56° C | 77% | 1010 hPa | 0 mm | 1.34 m/s, 161° | 550 W/m² | - |
| 1787896963 | 30.56° C | 77% | 1010.1 hPa | 0 mm | 0.89 m/s, 197° | 485 W/m² | - |
| 1787896902 | 30.56° C | 77% | 1010.2 hPa | 0 mm | 2.68 m/s, 203° | 1138 W/m² | - |
| 1787896841 | 31.11° C | 76% | 1010.2 hPa | 0 mm | 3.13 m/s, 201° | 534 W/m² | - |
| 1787896780 | 31.11° C | 75% | 1010.4 hPa | 0 mm | 3.13 m/s, 206° | 488 W/m² | - |
| 1787896720 | 31.11° C | 76% | 1010.1 hPa | 0 mm | 2.68 m/s, 203° | 504 W/m² | - |
| 1787896658 | 31.11° C | 76% | 1010.3 hPa | 0 mm | 1.79 m/s, 163° | 1145 W/m² | - |
| 1787896597 | 30.56° C | 75% | 1010.3 hPa | 0 mm | 0.45 m/s, 272° | 1139 W/m² | - |
| 1787896536 | 30.56° C | 76% | 1010.4 hPa | 0 mm | 3.13 m/s, 237° | 601 W/m² | - |
| 1787896475 | 30.56° C | 76% | 1010.2 hPa | 0 mm | 0.89 m/s, 294° | 446 W/m² | - |
| 1787896414 | 31.11° C | 76% | 1010.2 hPa | 0 mm | 0.89 m/s, 327° | 674 W/m² | - |
| 1787896353 | 31.11° C | 74% | 1010.3 hPa | 0 mm | 3.13 m/s, 250° | 728 W/m² | - |
| 1787896292 | 31.11° C | 75% | 1010.4 hPa | 0 mm | 4.02 m/s, 189° | 402 W/m² | - |
| 1787896231 | 31.11° C | 76% | 1010.4 hPa | 0 mm | 1.79 m/s, 231° | 1103 W/m² | - |
| 1787896170 | 31.11° C | 76% | 1010.3 hPa | 0 mm | 1.79 m/s, 22° | 1143 W/m² | - |
| 1787896109 | 30.56° C | 76% | 1010.4 hPa | 0 mm | 3.58 m/s, 208° | 575 W/m² | - |
| 1787896048 | 30.56° C | 77% | 1010.2 hPa | 0 mm | 1.79 m/s, 257° | 1142 W/m² | - |
* Rain latest hour (hover to see other rain measurements)
** Current wind speed in m/s (hover to see current wind gust speed)